This is the latest recevied weather packets stored in our database for station/object KY0TEQ-13. If no packets are shown the sender has not sent any weather packets the latest 10 day(s).
| Time | Temp. | Humidity | Pressure | Rain* | Wind** | Luminosity | Snow |
|---|---|---|---|---|---|---|---|
| 1777207648 | 4.44° C | 86% | 1294.8 hPa | 1.27 mm | - | 3 W/m² | - |
| 1777207343 | 4.44° C | 86% | 1294.8 hPa | 0 mm | - | 2 W/m² | - |
| 1777207038 | 4.44° C | 86% | 1294.5 hPa | 0 mm | - | 3 W/m² | - |
| 1777206735 | 5° C | 86% | 1294.6 hPa | 0 mm | - | 2 W/m² | - |
| 1777206429 | 5° C | 85% | 1294.8 hPa | 0 mm | - | 1 W/m² | - |
| 1777206124 | 5° C | 84% | 1295 hPa | 0 mm | - | 0 W/m² | - |
| 1777205821 | 5° C | 84% | 1295.1 hPa | 0 mm | - | 0 W/m² | - |
| 1777205517 | 5° C | 83% | 1294.8 hPa | 0 mm | - | 0 W/m² | - |
| 1777205214 | 5° C | 83% | 1294.9 hPa | 0 mm | - | 0 W/m² | - |
| 1777204910 | 5° C | 82% | 1295.1 hPa | 0 mm | - | 0 W/m² | - |
| 1777204605 | 5° C | 82% | 1294.9 hPa | 0 mm | - | 0 W/m² | - |
| 1777204300 | 5° C | 82% | 1295.3 hPa | 0 mm | - | 0 W/m² | - |
| 1777203997 | 5° C | 82% | 1295.1 hPa | 0 mm | - | 0 W/m² | - |
| 1777203691 | 5° C | 82% | 1295.3 hPa | 0 mm | - | 0 W/m² | - |
| 1777203387 | 5° C | 82% | 1295.3 hPa | 0 mm | - | 0 W/m² | - |
| 1777203084 | 5° C | 81% | 1295.1 hPa | 0 mm | - | 0 W/m² | - |
| 1777202780 | 5° C | 80% | 1295.4 hPa | 1.78 mm | - | 0 W/m² | - |
| 1777202479 | 5° C | 80% | 1295.5 hPa | 1.78 mm | - | 0 W/m² | - |
| 1777202173 | 5° C | 79% | 1295.4 hPa | 1.27 mm | - | 0 W/m² | - |
| 1777201870 | 5° C | 79% | 1295.6 hPa | 3.05 mm | - | 0 W/m² | - |
| 1777201567 | 5° C | 82% | 1295.7 hPa | 1.78 mm | - | 0 W/m² | - |
| 1777201263 | 5° C | 82% | 1295.9 hPa | 0 mm | - | 0 W/m² | - |
| 1777200958 | 5° C | 83% | 1295.7 hPa | 0 mm | - | 0 W/m² | - |
| 1777200655 | 5° C | 83% | 1295.5 hPa | 0 mm | - | 0 W/m² | - |
| 1777200354 | 5° C | 83% | 1295.5 hPa | 0 mm | - | 0 W/m² | - |
* Rain latest hour (hover to see other rain measurements)
** Current wind speed in m/s (hover to see current wind gust speed)